Regional Weather Roundup
Issued by NWS

Home | Current Version | Previous Version | Graphics & Text | Print | Product List | Glossary On
Versions: 1 2 3 4 5 6 7 8 9 10 11 12 13 14 15 16 17 18 19 20 21 22 23 24 25 26 27 28 29 30 31 32 33 34 35 36 37 38 39 40 41 42 43 44 45 46 47 48 49 50
000
ASUS43 KMKX 221521
RWRWI

WISCONSIN REGIONAL WEATHER ROUNDUP
NATIONAL WEATHER SERVICE MILWAUKEE/SULLIVAN WI
900 AM CST WED FEB 22 2017

NOTE: "FAIR" INDICATES FEW OR NO CLOUDS BELOW 12,000 FEET WITH NO
SIGNIFICANT WEATHER AND/OR OBSTRUCTIONS TO VISIBILITY.

WIZ001-002-006>008-014>016-023>028-221600-
NORTHWEST WISCONSIN

CITY           SKY/WX    TMP DP  RH WIND       PRES   REMARKS
SUPERIOR ARPT  CLOUDY    36  36  99 CALM      29.64S
ASHLAND        CLOUDY    40  39  97 E3        29.62F
HAYWARD        FOG       40  38  93 N3        29.61S VSB 3/4
SIREN          FOG       37  37  99 CALM      29.62R VSB<1/4
CUMBERLAND     FOG       36  34  93 S5        29.61R VSB 3/4 WCI  32
RICE LAKE      CLOUDY    38  38 100 CALM      29.63R
CHETEK         CLOUDY    42  39  91 CALM      29.61F
LADYSMITH      MOSUNNY   42  38  84 SE3       29.63R
EAU CLAIRE     MOSUNNY   47  38  71 N3        29.59F
MENOMONIE      MOSUNNY   44  39  82 N5        29.60F
NEW RICHMOND   MOSUNNY   40  40 100 CALM      29.60F
OSCEOLA        CLOUDY    39  39 100 CALM      29.64R FOG
$$

WIZ003>005-009-010-017-018-221600-
NORTH CENTRAL WISCONSIN

CITY           SKY/WX    TMP DP  RH WIND       PRES   REMARKS
MANITOWISH WTR PTSUNNY   39  38  96 N3        29.61F
ARBOR VITAE    MOSUNNY   42  38  86 CALM        N/A
WOODRUFF       MOSUNNY   42  38  86 CALM        N/A
RHINELANDER    CLOUDY    45  38  76 SE3       29.62S
EAGLE RIVER    CLOUDY    41  34  78 CALM      29.61F
LAND O LAKES   CLOUDY    42  35  76 CALM      29.63F
PHILLIPS       PTSUNNY   44  38  79 CALM      29.59F
TOMAHAWK       PTSUNNY   42  35  77 CALM      29.60F
MEDFORD        MOSUNNY   41  37  86 CALM      29.61F
MERRILL        NOT AVBL
$$

WIZ029-030-035-036-043>047-221600-
CENTRAL WISCONSIN

CITY           SKY/WX    TMP DP  RH WIND       PRES   REMARKS
WAUSAU         CLOUDY    44  37  76 SE8       29.58S
MOSINEE        MOSUNNY   45  39  81 SE3       29.62F
MARSHFIELD     MOSUNNY   47  36  65 S5        29.58F
STEVENS POINT  MOSUNNY   46  37  70 CALM      29.62F
WAUPACA        CLOUDY    52  44  74 SE5       29.62F
WAUTOMA        CLOUDY    51  44  77 S6        29.64F
WISC RAPIDS    MOSUNNY   54  39  57 SW7       29.61F
CAMP DOUGLAS   MOSUNNY   55  37  50 S6        29.61F
$$

WIZ011>013-019>022-031-037>040-048>050-221600-
NORTHEAST WISCONSIN

CITY           SKY/WX    TMP DP  RH WIND       PRES   REMARKS
ANTIGO         LGT RAIN  36  35  94 NE12      29.59F WCI  28
SHAWANO        CLOUDY    47  41  80 CALM      29.64S
OCONTO         CLOUDY    43  40  89 S7        29.65F
STURGEON BAY   MOSUNNY   47  42  83 S5        29.67F
GREEN BAY      CLOUDY    46  43  89 S6        29.66F
MANITOWOC      CLOUDY    42  40  92 E6        29.68F
APPLETON       PTSUNNY   46  45  93 S7        28.65F
CLINTONVILLE   PTSUNNY   45  39  81 CALM      29.63F
OSHKOSH        MOSUNNY   50  46  86 S15       29.65F
$$

WIZ032>034-041-042-053>061-221600-
SOUTHWEST WISCONSIN

CITY           SKY/WX    TMP DP  RH WIND       PRES   REMARKS
LA CROSSE      MOSUNNY   49  36  61 S8        29.61F
SPARTA         MOSUNNY   53  36  52 SW10      29.61F
VIROQUA        MOSUNNY   50  37  59 SW10      29.63F
BOSCOBEL       SUNNY     47  41  80 W3        29.67F
PRAIRIE DU CHI MOSUNNY   54  38  55 S3        29.65F
PLATTEVILLE    SUNNY     51  51 100 S14       29.71S
$$

WIZ056-057-062-063-064-067-068-221600-
SOUTH CENTRAL WISCONSIN

CITY           SKY/WX    TMP DP  RH WIND       PRES   REMARKS
REEDSBURG      SUNNY     55  45  69 SW12      29.64F
BARABOO/DELLS  SUNNY     56  41  57 SW14G20   29.64F
LONE ROCK      SUNNY     52  46  80 S12       29.68F
MINERAL POINT  FOG       46  46 100 S9        29.69F VSB<1/4
MADISON        PTSUNNY   51  49  92 S14       29.68F FOG
MIDDLETON      SUNNY     56  49  78 SW10G21   29.68S
WATERTOWN      PTSUNNY   53  53 100 S8        29.69F
MONROE         DRZL/FOG  50  50 100 S17       29.72S VSB 1/4
JANESVILLE     CLOUDY    52  52 100 SW13      29.73F FOG
$$

WIZ051-052-058>065-066-070>072-221600-
SOUTHEAST WISCONSIN

CITY           SKY/WX    TMP DP  RH WIND       PRES   REMARKS
MILWAUKEE      CLOUDY    54  51  90 SW15G25   29.73F
WAUKESHA       CLOUDY    52  50  93 SW7       29.73F FOG
MILWAUKEE/TIMM CLOUDY    52  48  87 SW13      29.73F FOG
RACINE         CLOUDY    53  52  96 SW14      29.76F FOG
KENOSHA        CLOUDY    53  52  96 SW12G21   29.75F FOG
FOND DU LAC    MOSUNNY   54  46  74 S9        29.66F
SHEBOYGAN      MOSUNNY   55  47  74 SW10      29.68F
WEST BEND      SUNNY     54  50  87 SW13      29.69F
JUNEAU         SUNNY     51  49  92 S15       29.69F
$$

LSZ147-162-221600-
LAKE SUPERIOR

STATION/POSITION TIME  TEMP    WIND        PRES    WAVE
                       AIR SEA DIR/SP/G            HT/PER
                 (UTC) (F)     (DEG/KT/KT) (MB)    (FT/S)
DEVILS ISLAND    1500   37     270/  5/  5 1004.5R
PORT WING        1440   35     120/  2/  3 1004.1F
SAXON HARBOR     1430   36     190/  3/  4 1004.1R
$$

LMZ867-665-643>646-221600-
LAKE MICHIGAN

STATION/POSITION TIME  TEMP    WIND        PRES    WAVE
                       AIR SEA DIR/SP/G            HT/PER
                 (UTC) (F)     (DEG/KT/KT) (MB)    (FT/S)
CHAMBERS ISLAND  1440   45     180/  6/ 12 1004.1F
NORTHPORT PIER   1500   44     190/  5/ 23 1004.7
SISTER BAY       1435   45     180/  7/  9   N/A
KEWAUNEE LAKESHO 1454   36     160/  8/  9 1004.6F
SHEBOYGAN LAKESH 1500   41     180/ 13/ 14 1005.4F
PORT WASHINGTON  1430   48     190/  7/ 10 1007.1F
MILWAUKEE LAKESH 1500   52     230/ 13/ 16   N/A
KENOSHA   LAKESH 1500   54     220/ 12/ 16 1007.8
$$

TC  - TEMPERATURE IN CELSIUS
VSB - VISIBILITY IN STATUTE MILES
WCI - WIND CHILL INDEX
HX  - HEAT INDEX





USA.gov is the U.S. government's official web portal to all federal, state and local government web resources and services.